www.pogodaiklimat.ru

Погода и климат >> Архив погоды >> Австралия >> Longreach Airport


ПОГОДА в Longreach Airport

  • Прогноз погоды в Longreach Airport
  • Монитор погоды в Longreach Airport
  • Климат города

АРХИВ ПОГОДЫ в Longreach Airport

Время (UTC), дата Ветер
(напр.,м/с)
 
Видим.   Явления Облачность Т
(С)
Тd
(С)
f
(%)
Тe
(С)
Тes
(С)
Комфортность P
(гПа)
Po
(гПа)
Тmin
(С)
Tmax
(С)
R
(мм)
R24
(мм)
S
(см)
23 15.01 СВ 8 н/о н/о +32.3 +17.7 42 +36 +36 очень
душно
1009.5 988.0
00 16.01 СВ 8 н/о н/о +33.3 +14.4 32 +35 +35 душно 1009.6 988.1
02 16.01 В 5 н/о н/о +36.6 +12.1 23 +36 +36 очень
жарко
1008.4 987.0 +25.3
03 16.01 В 5 н/о н/о +37.3 +9.8 19 +36 +36 очень
жарко
1007.5 986.1
05 16.01 СВ 6 н/о н/о +38.7 +7.4 15 +36 +36 очень
жарко
1005.6 984.2
06 16.01 ЮВ 6 н/о н/о +38.3 +7.1 15 +36 +36 очень
жарко
1005.0 983.6
08 16.01 В 6 н/о 5/0
[]
+38.2 +5.0 13 +35 +36 очень
жарко
1005.0 983.6
09 16.01 В 6 н/о н/о +36.4 +4.6 14 +34 +34 очень
жарко
1005.7 984.3
11 16.01 В 5 н/о н/о +32.2 +4.9 18 +30 +30 жарко 1006.7 985.3
12 16.01 СВ 7 н/о н/о +31.9 +7.5 22 +31 +31 жарко 1007.2 985.8
14 16.01 СВ 4 н/о н/о +29.0 +8.1 27 +28 +28 жарко 1007.6 986.2 +40.2
15 16.01 СВ 3 н/о н/о +27.1 +7.5 29 +27 +27 жарко 1007.1 985.7
17 16.01 В 4 н/о н/о +26.4 +7.9 31 +26 +26 жарко 1007.7 986.3
18 16.01 СВ 6 н/о н/о +26.8 +10.1 35 +27 +27 жарко 1008.1 986.7
20 16.01 СВ 4 н/о н/о +26.9 +15.6 50 +30 +30 душно 1010.2 988.7
21 16.01 СВ 7 н/о н/о +27.7 +15.7 48 +31 +31 душно 1011.6 990.1
23 16.01 СВ 9 н/о н/о +29.5 +14.1 39 +31 +31 жарко 1012.8 991.3
00 17.01 СВ 8 н/о н/о +31.1 +14.3 36 +33 +33 душно 1012.6 991.1
02 17.01 СВ 9 н/о н/о +32.3 +13.0 31 +33 +33 жарко 1011.6 990.1 +26.2
03 17.01 В 7 н/о н/о +32.8 +12.4 29 +33 +33 жарко 1011.1 989.6
05 17.01 В 7 н/о н/о +35.5 +10.5 22 +35 +35 очень
жарко
1009.7 988.2
06 17.01 В 7 н/о н/о +35.5 +10.5 22 +35 +35 очень
жарко
1008.9 987.5
08 17.01 В 7 н/о 4/0
[]
+34.4 +9.6 22 +33 +34 жарко 1009.2 987.7
09 17.01 СВ 7 н/о н/о +33.2 +9.9 24 +32 +32 жарко 1009.8 988.3
11 17.01 В 5 н/о 4/0
[]
+31.0 +9.3 26 +30 +30 жарко 1011.0 989.5
12 17.01 В 5 н/о н/о +30.1 +9.1 27 +30 +30 жарко 1011.8 990.3
14 17.01 В 4 н/о 1/0
[]
+27.9 +8.7 30 +28 +28 жарко 1011.7 990.2 +36.7
15 17.01 СВ 6 н/о н/о +28.4 +7.6 27 +28 +28 жарко 1011.4 989.9
17 17.01 СВ 5 н/о 9/0
[]
+26.8 +6.8 28 +26 +26 жарко 1010.8 989.3
18 17.01 СВ 4 н/о н/о +25.6 +6.8 30 +25 +25 комфорт 1011.4 989.9
20 17.01 СВ 4 н/о 10/0
[]
+24.3 +7.0 33 +24 +24 комфорт 1012.9 991.4
21 17.01 СВ 5 н/о н/о +26.8 +6.2 27 +26 +26 жарко 1013.9 992.3
23 17.01 СВ 9 н/о н/о +30.5 +8.8 26 +30 +30 жарко 1014.4 992.8
00 18.01 СВ 8 н/о н/о +32.0 +9.5 25 +31 +31 жарко 1014.2 992.6
02 18.01 СВ 7 н/о н/о +35.7 +7.7 18 +34 +34 очень
жарко
1012.5 991.0 +24.1
03 18.01 В 9 н/о н/о +36.9 +6.0 15 +34 +34 очень
жарко
1011.5 990.0
05 18.01 В 8 н/о н/о +37.7 +5.6 14 +35 +35 очень
жарко
1009.8 988.3
06 18.01 В 7 н/о н/о +37.7 +6.6 15 +35 +35 очень
жарко
1009.1 987.6
08 18.01 СВ 7 н/о н/о +36.3 +7.4 17 +34 +34 очень
жарко
1009.1 987.6
09 18.01 В 7 н/о н/о +35.3 +5.7 16 +33 +33 жарко 1009.7 988.2
11 18.01 В 4 н/о н/о +31.5 +5.1 19 +29 +29 жарко 1011.0 989.5
12 18.01 СВ 4 н/о н/о +31.0 +6.1 21 +29 +29 жарко 1011.4 989.9
14 18.01 СВ 3 н/о н/о +28.7 +5.5 23 +27 +27 жарко 1010.9 989.4 +38.7
15 18.01 СВ 4 н/о н/о +28.0 +5.6 24 +27 +27 жарко 1010.5 989.0
17 18.01 СВ 5 н/о н/о +28.0 +6.7 26 +27 +27 жарко 1010.3 988.8
18 18.01 СВ 6 н/о н/о +27.0 +7.5 29 +27 +27 жарко 1010.7 989.2
20 18.01 СВ 4 н/о н/о +24.8 +7.9 34 +25 +25 комфорт 1012.0 990.5
21 18.01 СВ 4 н/о н/о +26.9 +9.3 33 +27 +27 жарко 1012.7 991.2
23 18.01 С 9 н/о н/о +29.2 +11.3 33 +30 +30 жарко 1013.6 992.1
00 19.01 С 6 н/о н/о +30.9 +10.8 29 +31 +31 жарко 1013.8 992.2
02 19.01 СВ 5 н/о 3/0
[]
+33.3 +10.6 25 +33 +44 жарко 1012.3 990.8 +24.8
03 19.01 СВ 5 н/о н/о +34.0 +10.6 24 +33 +33 жарко 1011.6 990.1
05 19.01 В 5 н/о 8/0
[]
+34.8 +8.5 20 +33 +38 жарко 1009.8 988.3
06 19.01 В 6 н/о н/о +34.6 +9.1 21 +33 +33 жарко 1009.1 987.6
08 19.01 ЮВ 5 н/о 10/0
[]
+34.0 +9.3 22 +33 +33 жарко 1008.6 987.2
09 19.01 ЮВ 5 н/о н/о +33.4 +9.4 23 +32 +32 жарко 1008.6 987.2
11 19.01 Ю 3 н/о 1/0
[]
+30.7 +9.0 26 +30 +30 жарко 1008.6 987.2
12 19.01 Ю 3 н/о н/о +30.0 +9.0 27 +29 +29 жарко 1008.6 987.2
14 19.01 С 4 н/о 8/0
[]
+27.6 +8.5 30 +27 +27 жарко 1008.4 987.0 +35.5
15 19.01 С 3 н/о н/о +26.1 +8.1 32 +26 +26 жарко 1008.0 986.6
17 19.01 СВ 4 н/о 9/0
[]
+26.8 +7.8 30 +27 +27 жарко 1007.1 985.7
18 19.01 С 3 н/о н/о +23.5 +5.9 32 +24 +24 комфорт 1007.3 985.9
20 19.01 СВ 4 н/о 9/0
[]
+24.4 +6.2 31 +24 +24 комфорт 1008.9 987.5
21 19.01 СВ 3 н/о н/о +26.4 +7.4 30 +26 +26 жарко 1010.1 988.6
23 19.01 С 5 н/о 10/0
[]
+30.5 +13.3 35 +32 +35 жарко 1011.1 989.6
00 20.01 С 6 н/о н/о +32.1 +10.2 26 +32 +32 жарко 1010.7 989.2
02 20.01 СВ 4 н/о 9/0
[]
+34.7 +6.1 17 +32 +41 жарко 1009.4 987.9 +23.1
03 20.01 В 4 н/о н/о +35.2 +6.5 17 +33 +33 жарко 1008.9 987.5
05 20.01 В 4 н/о 10/0
[]
+36.0 +4.3 14 +33 +38 жарко 1007.5 986.1
06 20.01 В 4 н/о н/о +35.8 +5.1 15 +33 +33 жарко 1006.8 985.4
08 20.01 В 2 н/о 8/0
[]
+35.4 +4.8 15 +33 +33 жарко 1006.7 985.3
09 20.01 Ю 2 н/о н/о +33.5 +5.1 17 +31 +31 жарко 1006.9 985.5
11 20.01 Ю 3 н/о 10/0
[]
+30.8 +4.5 19 +29 +29 жарко 1007.3 985.9
12 20.01 СВ 1 н/о н/о +28.2 +3.8 21 +27 +27 жарко 1007.8 986.4
14 20.01 С 2 н/о 10/0
[]
+27.9 +5.5 24 +27 +27 жарко 1007.7 986.3 +36.6
15 20.01 штиль 0 н/о н/о +26.7 +5.1 25 +26 +26 жарко 1006.8 985.4
17 20.01 С 2 н/о 4/0
[]
+24.5 +4.3 27 +24 +24 комфорт 1005.8 984.4
18 20.01 В 2 н/о н/о +24.4 +5.7 30 +24 +24 комфорт 1006.0 984.6
20 20.01 ЮВ 4 н/о 9/0
[]
+24.4 +4.7 28 +24 +24 комфорт 1007.3 985.9
21 20.01 СВ 3 н/о н/о +27.6 +4.6 23 +26 +26 жарко 1008.4 987.0
23 20.01 С 8 н/о 9/0
[]
+32.3 +6.5 20 +30 +32 жарко 1009.3 987.8
00 21.01 С 8 н/о н/о +33.4 +7.4 20 +32 +32 жарко 1009.3 987.8
02 21.01 С 6 н/о н/о +36.6 +9.2 19 +35 +35 очень
жарко
1007.6 986.2 +23.4
03 21.01 С 3 н/о н/о +37.4 +9.9 19 +36 +36 очень
жарко
1006.6 985.2
05 21.01 В 7 н/о н/о +40.2 +9.6 16 +39 +39 очень
жарко
1004.5 983.1
06 21.01 В 7 н/о н/о +40.1 +8.5 15 +38 +38 очень
жарко
1003.8 982.5
08 21.01 В 5 н/о н/о +39.5 +8.1 15 +37 +37 очень
жарко
1004.0 982.7
09 21.01 В 5 н/о н/о +37.8 +8.6 17 +36 +36 очень
жарко
1004.7 983.3
11 21.01 СВ 5 н/о н/о +33.6 +9.0 22 +32 +32 жарко 1005.9 984.5
12 21.01 С 5 н/о н/о +31.9 +8.8 24 +31 +31 жарко 1006.2 984.8
14 21.01 С 5 н/о н/о +28.3 +9.1 30 +28 +28 жарко 1006.1 984.7 +40.9
15 21.01 СВ 4 н/о н/о +28.0 +9.8 32 +28 +28 жарко 1005.8 984.4
17 21.01 СВ 4 н/о 8/0
[]
+25.8 +9.2 35 +26 +26 жарко 1005.7 984.3
18 21.01 СВ 4 н/о н/о +26.4 +9.7 35 +27 +27 жарко 1006.0 984.6
20 21.01 СВ 4 н/о 9/0
[]
+25.2 +10.6 40 +26 +26 жарко 1007.3 985.9
21 21.01 СВ 5 н/о н/о +27.0 +12.6 41 +29 +29 жарко 1008.4 987.0
23 21.01 С 7 н/о н/о +30.7 +15.2 39 +33 +33 душно 1009.2 987.7
00 22.01 СВ 6 н/о н/о +33.3 +15.8 35 +36 +36 очень
душно
1009.2 987.7
02 22.01 СВ 7 н/о 1/0
[]
+35.9 +14.5 28 +37 +44 душно 1007.3 985.9 +24.9
03 22.01 В 3 н/о н/о +35.5 +13.6 27 +36 +36 очень
жарко
1006.2 984.8
05 22.01 В 4 н/о 1/0
[]
+39.0 +13.4 22 +39 +49 очень
жарко
1004.1 982.8
06 22.01 ЮВ 4 н/о н/о +39.1 +12.0 20 +39 +39 очень
жарко
1003.1 981.8
08 22.01 В 5 н/о 6/0
[]
+38.8 +11.0 19 +38 +38 очень
жарко
1002.9 981.6
09 22.01 В 5 н/о н/о +37.3 +11.3 21 +37 +37 очень
жарко
1003.6 982.3
11 22.01 СВ 4 н/о 1/0
[]
+33.9 +9.2 22 +33 +33 жарко 1005.1 983.7
12 22.01 СВ 8 н/о н/о +33.2 +12.8 29 +34 +34 очень
жарко
1005.8 984.4
14 22.01 СВ 5 н/о н/о +30.4 +11.9 32 +31 +31 жарко 1005.9 984.5 +40.0
15 22.01 СВ 5 н/о н/о +29.1 +11.6 34 +30 +30 жарко 1005.5 984.1
17 22.01 С 3 н/о н/о +26.1 +10.7 38 +27 +27 жарко 1005.5 984.1
18 22.01 СВ 4 н/о н/о +25.2 +10.6 40 +26 +26 жарко 1005.9 984.5
20 22.01 СВ 4 н/о н/о +25.6 +13.5 47 +28 +28 жарко 1007.4 986.0
21 22.01 СВ 5 н/о н/о +27.7 +14.3 44 +30 +30 жарко 1008.3 986.9

 

Местоположение метеостанции Longreach Airport (Квинсленд, Австралия): широта -23.43 долгота 144.28 высота над уровнем моря 192 м.

В архиве по умолчанию представлена погода в Longreach Airport за последнюю неделю. Архивные данные за месяц целиком и за предыдущие месяцы, начиная с января 2011 года, Вы можете получить, выбрав интересующий диапазон дат из раскрывающегося списка и нажав кнопку "Ввод!".

Внимание! Время в таблицах - всемирное. Для получения местного времени необходимо прибавить поправку, которая в Longreach Airport равна 10 ч.

Смотрите также архив погоды в соседних городах и на ближайших метеорологических станциях:

Погода в Blackall Airport (Квинсленд, Австралия) (161 км)
Погода в Winton Airport (Квинсленд, Австралия) (170 км)
Погода в Hughenden Airport (Квинсленд, Австралия) (290 км)
Погода в Richmond Airport (Квинсленд, Австралия) (327 км)
Погода в Lochington (Квинсленд, Австралия) (335 км)
Погода в Clermont Airport (Квинсленд, Австралия) (349 км)
Погода в Charleville Aero (Квинсленд, Австралия) (387 км)
Погода в Trepell Airport (Квинсленд, Австралия) (392 км)
Погода в Emerald Airport (Квинсленд, Австралия) (398 км)
Погода в Julia Creek Airport (Квинсленд, Австралия) (404 км)

Пояснения к столбцам:

Ветер - указаны скорость ветра в м/с - средняя за 10 мин, порывы в срок и между сроками (в фигурных скобках) и направление, откуда дует ветер: С - северный, СВ - северо-восточный, В - восточный, ЮВ - юго-восточный, Ю - южный, ЮЗ - юго-западный, З - западный, СЗ - северо-западный.
Видимость - горизонтальная дальность видимости в метрах или километрах. При видимости от 1 до 10 км при отсутствии осадков обычно наблюдается дымка, при ухудшении видимости до 1 км и менее - туман. В сухую погоду видимость может ухудшаться дымом, пылью или мглою.
Явления - указаны атмосферные явления, наблюдавшиеся в срок или в последний час перед сроком; фигурными скобками обозначены явления, наблюдавшиеся между сроками (за 1-3 часа до срока); квадратными скобками обозначены град или гололедные отложения с указанием их диаметра в мм.
Облачность - указаны через наклонную черту общая и нижняя облачность в баллах и высота нижней границы облаков в метрах; квадратными скобками обозначены формы облаков: Ci - перистые, Cs - перисто-слоистые, Cc - перисто-кучевые, Ac - высококучевые, As - высокослоистые, Sc - слоисто-кучевые, Ns - слоисто-дождевые, Cu - кучевые, Cb - кучево-дождевые. Подробнее классификацию облаков см. в Атласе облаков (PDF).
T - Температура воздуха - температура, измеренная на высоте 2 м над землей.
Td - Температура точки росы - температура, при понижении до которой содержащийся в воздухе водяной пар достигнет насыщения.
f - Относительная влажность воздуха - влажноcть воздуха, измеренная на высоте 2 м над землей.
Te - Эффективная температура - температура, которую ощущает одетый по сезону человек в тени. Характеристика душности погоды. При расчете учитывается влияние влажности воздуха и скорости ветра на теплоощущения человека.
Tes - Эффективная температура на солнце - температура, которую ощущает человек, с поправкой на солнечный нагрев. Характеристика знойности погоды. Зависит от высоты солнца над горизонтом, облачности и скорости ветра. Ночью, в пасмурную погоду, а также при ветре 12 м/с и более поправка равна нулю.
P - Атмосферное давление - приведенное к уровню моря атмосферное давление.
Po - Атмосферное давление - измеренное на уровне метеостанции атмосферное давление.
Tmin - Минимальная температура - минимум температуры воздуха на высоте 2 м над землей.
Tmax - Максимальная температура - максимум температуры воздуха на высоте 2 м над землей.
R - Количество осадков - Количество выпавших осадков за период времени, мм. При наведении курсора мыши на число - период времени, за который выпало указанное количество осадков.
R24 - Количество осадков - Количество выпавших осадков за 24 часа, мм.
S - Снежный покров - Высота снежного покрова, см. При наведении курсора мыши на число - состояние снежного покрова и степень покрытия местности в баллах.